EW7518 Weather Reports


time (UTC)temp
C
wind
direction
speed
KPH
gust
KPH
rain 1hr
cm
rain 24hr
cm
rain mn
cm
humidity
%
barometer
mb
20180424155209 21 215 4.8 9.7 0.00 0.05 0.05 71 1011.2
20180424154708 22 213 4.8 9.7 0.00 0.05 0.05 71 1011.1
20180424154213 22 195 4.8 14.5 0.00 0.05 0.05 71 1011.1
20180424153721 22 157 4.8 14.5 0.00 0.05 0.05 71 1011.1
20180424153212 22 183 6.4 14.5 0.00 0.05 0.05 72 1011.1
20180424152725 22 169 6.4 14.5 0.00 0.05 0.05 71 1011.1
20180424152210 22 171 8.0 12.9 0.00 0.05 0.05 71 1011.1
20180424151725 22 206 8.0 12.9 0.00 0.05 0.05 71 1011.2
20180424151209 22 186 6.4 11.3 0.00 0.05 0.05 71 1011.2
20180424150708 23 209 4.8 11.3 0.00 0.05 0.05 71 1011.2
20180424150215 23 171 4.8 16.1 0.00 0.05 0.05 70 1011.2
20180424145708 23 196 4.8 16.1 0.00 0.05 0.05 71 1011.2
20180424145209 23 191 4.8 9.7 0.00 0.05 0.05 69 1011.2
20180424144732 23 192 3.2 9.7 0.00 0.05 0.05 69 1011.2
20180424144209 23 134 3.2 14.5 0.00 0.05 0.05 70 1011.2
20180424143713 23 190 4.8 14.5 0.00 0.05 0.05 70 1011.2
20180424143219 23 146 4.8 11.3 0.00 0.05 0.05 71 1011.2
20180424142721 23 147 4.8 11.3 0.00 0.05 0.05 70 1011.2
20180424142210 23 140 3.2 11.3 0.00 0.05 0.05 71 1011.2
20180424141721 22 206 4.8 11.3 0.00 0.05 0.05 71 1011.3
20180424141215 22 165 4.8 11.3 0.00 0.05 0.05 73 1011.3
20180424140707 22 154 4.8 11.3 0.00 0.05 0.05 72 1011.3
20180424140215 22 244 3.2 14.5 0.00 0.05 0.05 72 1011.5
20180424135720 22 129 3.2 14.5 0.00 0.05 0.05 73 1011.5
20180424135211 22 168 4.8 14.5 0.00 0.05 0.05 73 1011.5
20180424134709 22 184 6.4 14.5 0.00 0.05 0.05 73 1011.5
20180424134224 22 217 4.8 12.9 0.00 0.05 0.05 73 1011.5
20180424133708 22 201 4.8 12.9 0.00 0.05 0.05 75 1011.5
20180424133216 22 211 6.4 12.9 0.00 0.05 0.05 74 1011.6
20180424132708 22 181 6.4 12.9 0.00 0.05 0.05 74 1011.6
20180424132211 22 173 6.4 11.3 0.00 0.05 0.05 74 1011.6
20180424131709 22 196 6.4 11.3 0.00 0.05 0.05 73 1011.6
20180424131216 22 188 6.4 14.5 0.00 0.05 0.05 72 1011.6
20180424130708 22 196 6.4 14.5 0.00 0.05 0.05 72 1011.6
20180424130215 22 209 4.8 11.3 0.00 0.05 0.05 70 1011.6
20180424125708 22 126 4.8 11.3 0.00 0.05 0.05 71 1011.6
20180424125215 22 145 4.8 11.3 0.00 0.05 0.05 70 1011.6
20180424124708 22 185 6.4 11.3 0.00 0.05 0.05 68 1011.7
20180424124210 22 157 6.4 9.7 0.00 0.05 0.05 69 1011.7
20180424123734 22 248 4.8 9.7 0.00 0.05 0.05 68 1011.7
20180424123210 22 230 3.2 9.7 0.00 0.05 0.05 67 1011.7
20180424122709 23 233 1.6 9.7 0.00 0.05 0.05 67 1011.7
20180424122209 23 238 3.2 9.7 0.00 0.05 0.05 66 1011.7
20180424121709 23 185 3.2 9.7 0.00 0.05 0.05 65 1011.7
20180424121233 23 227 3.2 9.7 0.00 0.05 0.05 66 1011.7
20180424120708 23 123 3.2 9.7 0.00 0.05 0.05 69 1011.7
20180424120210 23 192 4.8 8.0 0.00 0.05 0.05 66 1011.7
20180424115708 23 194 3.2 8.0 0.00 0.05 0.05 67 1011.7
20180424115209 23 77 3.2 9.7 0.00 0.05 0.05 63 1011.7
20180424114708 23 108 3.2 9.7 0.00 0.05 0.05 68 1011.9
20180424114211 23 76 3.2 14.5 0.00 0.05 0.05 68 1011.9
20180424113708 23 36 4.8 14.5 0.00 0.05 0.05 67 1011.9
20180424113209 23 12 6.4 14.5 0.00 0.05 0.05 72 1012.0
20180424112709 22 95 8.0 14.5 0.00 0.05 0.05 72 1012.0
20180424112220 22 69 8.0 16.1 0.00 0.05 0.05 74 1012.0
20180424111724 22 123 9.7 20.9 0.00 0.05 0.05 73 1012.1
20180424111209 22 78 9.7 24.1 0.00 0.05 0.05 74 1012.1
20180424110708 21 117 8.0 24.1 0.00 0.05 0.05 76 1012.1
20180424110212 21 73 9.7 24.1 0.00 0.05 0.05 76 1012.3
20180424105713 21 103 12.9 24.1 0.00 0.05 0.05 78 1012.3
20180424105212 20 83 12.9 24.1 0.00 0.05 0.05 78 1012.3
20180424104716 20 114 12.9 24.1 0.00 0.05 0.05 77 1011.6
20180424104210 20 111 12.9 25.7 0.00 0.05 0.05 77 1011.6
20180424103708 20 106 12.9 25.7 0.00 0.05 0.05 78 1011.6
20180424103231 20 69 12.9 25.7 0.00 0.05 0.05 78 1011.3
20180424102708 20 95 12.9 25.7 0.00 0.05 0.05 77 1011.3
20180424102217 20 117 11.3 19.3 0.00 0.05 0.05 77 1011.3
20180424101711 21 128 11.3 19.3 0.00 0.05 0.05 76 1011.2
20180424101209 21 107 9.7 16.1 0.00 0.05 0.05 76 1011.2
20180424100708 21 130 8.0 16.1 0.00 0.05 0.05 76 1011.2
20180424100212 21 121 6.4 12.9 0.00 0.05 0.05 76 1010.7
20180424095715 21 115 6.4 12.9 0.00 0.05 0.05 77 1010.7
20180424095225 21 119 6.4 8.0 0.00 0.05 0.05 75 1010.7
20180424094708 21 128 4.8 8.0 0.00 0.05 0.05 76 1010.6
20180424094218 21 115 3.2 11.3 0.00 0.05 0.05 77 1010.6
20180424093708 21 134 4.8 11.3 0.00 0.05 0.05 78 1010.6
20180424093210 20 140 4.8 9.7 0.00 0.05 0.05 78 1010.1
20180424092707 20 128 4.8 9.7 0.00 0.05 0.05 77 1010.1
20180424092212 20 286 4.8 11.3 0.00 0.05 0.05 73 1010.1
20180424091708 20 286 6.4 11.3 0.00 0.05 0.05 74 1010.0
20180424091210 20 268 6.4 8.0 0.00 0.05 0.05 75 1010.0
20180424090708 20 288 4.8 8.0 0.00 0.05 0.05 76 1010.0
20180424090211 19 281 4.8 8.0 0.00 0.05 0.05 76 1009.8
20180424085734 19 283 4.8 8.0 0.00 0.05 0.05 78 1009.8
20180424085209 18 270 3.2 8.0 0.00 0.05 0.05 78 1009.8
20180424084710 18 309 3.2 8.0 0.00 0.05 0.05 80 1010.1
20180424084211 18 322 3.2 4.8 0.00 0.05 0.05 80 1010.1
20180424083715 18 323 1.6 4.8 0.00 0.05 0.05 81 1010.1
20180424083210 18 308 1.6 4.8 0.00 0.05 0.05 80 1010.4
20180424082708 17 309 1.6 4.8 0.00 0.05 0.05 81 1010.4
20180424082220 17 309 3.2 6.4 0.00 0.05 0.05 81 1010.4
20180424081709 17 315 3.2 6.4 0.00 0.05 0.05 81 1010.3
20180424081220 17 343 3.2 8.0 0.00 0.05 0.05 82 1010.3
20180424080708 17 281 3.2 8.0 0.00 0.05 0.05 82 1010.3
20180424080219 17 279 3.2 4.8 0.00 0.05 0.05 82 1010.5
20180424075708 17 330 1.6 4.8 0.00 0.05 0.05 84 1010.5
20180424075228 17 330 1.6 4.8 0.00 0.05 0.05 83 1010.5
20180424074709 16 331 1.6 4.8 0.00 0.05 0.05 83 1010.5
20180424074212 16 331 1.6 4.8 0.00 0.05 0.05 83 1010.5
20180424073718 16 331 1.6 6.4 0.00 0.05 0.05 84 1010.5
20180424073210 16 331 3.2 6.4 0.00 0.05 0.05 84 1010.3
20180424072715 16 331 3.2 6.4 0.00 0.05 0.05 85 1010.3
20180424072212 16 331 3.2 4.8 0.00 0.05 0.05 85 1010.3
20180424071709 16 26 1.6 4.8 0.00 0.05 0.05 84 1010.5
20180424071217 16 26 1.6 4.8 0.00 0.05 0.05 85 1010.5
20180424070710 16 26 1.6 4.8 0.00 0.05 0.05 86 1010.5
20180424070212 16 26 1.6 4.8 0.00 0.05 0.05 86 1010.4
20180424065709 16 26 1.6 4.8 0.00 0.05 0.05 87 1010.4
20180424065211 16 26 1.6 4.8 0.00 0.05 0.05 87 1010.4
20180424064714 16 26 1.6 4.8 0.00 0.05 0.05 87 1010.3
20180424064211 15 26 1.6 3.2 0.00 0.05 0.05 87 1010.3
20180424063710 15 26 1.6 3.2 0.00 0.05 0.05 88 1010.3
20180424063210 15 26 1.6 3.2 0.00 0.05 0.05 89 1010.2
20180424062712 15 26 1.6 3.2 0.00 0.05 0.05 89 1010.2
20180424062214 15 26 1.6 4.8 0.00 0.05 0.05 89 1010.2
20180424061710 15 26 1.6 4.8 0.00 0.05 0.05 89 1010.4
20180424061222 15 26 1.6 4.8 0.00 0.05 0.05 89 1010.4
20180424060710 15 26 1.6 4.8 0.00 0.05 0.05 88 1010.4
20180424060216 15 72 0.0 3.2 0.00 0.05 0.05 88 1010.2
20180424055714 15 79 1.6 3.2 0.00 0.05 0.05 87 1010.2
20180424055217 16 79 1.6 3.2 0.00 0.05 0.05 87 1010.2
20180424054715 16 79 0.0 4.8 0.00 0.05 0.05 87 1010.2
20180424054212 16 78 1.6 4.8 0.00 0.05 0.05 86 1010.2
20180424053712 16 78 1.6 8.0 0.00 0.05 0.05 86 1010.2
20180424053224 16 78 3.2 8.0 0.00 0.05 0.05 86 1010.1
20180424052712 16 74 3.2 14.5 0.00 0.05 0.05 86 1010.1
20180424052221 16 96 4.8 25.7 0.00 0.05 0.05 86 1010.1
20180424051719 16 70 8.0 27.4 0.00 0.05 0.05 86 1009.6
20180424051210 16 124 12.9 27.4 0.00 0.05 0.05 86 1009.6
20180424050710 16 118 16.1 27.4 0.00 0.05 0.05 86 1009.6
20180424050242 16 99 12.9 20.9 0.00 0.05 0.05 85 1009.7
20180424045713 16 94 9.7 20.9 0.00 0.05 0.05 87 1009.7
20180424045214 16 130 8.0 25.7 0.00 0.05 0.05 87 1009.7
20180424044710 16 109 8.0 25.7 0.00 0.05 0.05 87 1009.4
20180424044235 17 88 11.3 25.7 0.00 0.05 0.05 87 1009.4
20180424043709 17 93 12.9 20.9 0.00 0.05 0.05 86 1009.4
20180424043212 17 74 8.0 16.1 0.00 0.05 0.05 86 1008.6
20180424042713 17 101 3.2 8.0 0.00 0.05 0.05 84 1008.6
20180424042210 17 99 3.2 8.0 0.00 0.05 0.05 82 1008.6
20180424041709 17 102 3.2 11.3 0.00 0.05 0.05 82 1008.5
20180424041211 17 211 4.8 11.3 0.00 0.05 0.05 79 1008.5
20180424040721 17 209 4.8 11.3 0.03 0.05 0.05 81 1008.5
20180424040212 17 105 4.8 9.7 0.03 0.05 0.05 83 1008.6
20180424035714 17 88 3.2 9.7 0.05 0.05 0.05 82 1008.6
20180424035210 17 335 3.2 9.7 0.05 0.05 0.05 81 1008.6
20180424034726 17 132 3.2 9.7 0.05 0.05 0.05 83 1008.8
20180424034213 17 62 4.8 11.3 0.05 0.05 0.05 81 1008.8
20180424033708 17 355 4.8 11.3 0.05 0.05 0.05 82 1008.8
20180424033213 17 355 4.8 11.3 0.05 0.05 0.05 83 1009.1
20180424032708 17 334 4.8 11.3 0.05 0.05 0.05 84 1009.1
20180424032210 17 340 3.2 6.4 0.05 0.05 0.05 85 1009.1
20180424031708 17 327 3.2 6.4 0.05 0.05 0.05 84 1009.2
20180424031214 18 305 1.6 6.4 0.05 0.05 0.05 85 1009.2
20180424030708 18 268 3.2 6.4 0.03 0.03 0.03 83 1009.2
20180424030210 18 265 3.2 4.8 0.03 0.03 0.03 82 1009.1
20180424025218 18 237 3.2 4.8 0.00 0.00 0.00 78 1009.1
20180424024708 18 82 1.6 4.8 0.00 0.00 0.00 77 1009.1
20180424024212 18 80 1.6 6.4 0.00 0.00 0.00 78 1009.1
20180424023708 18 80 1.6 6.4 0.00 0.00 0.00 77 1009.1
20180424023216 18 80 3.2 9.7 0.00 0.00 0.00 77 1009.1
20180424022708 18 22 3.2 9.7 0.00 0.00 0.00 76 1009.1
20180424022210 18 55 3.2 12.9 0.00 0.00 0.00 77 1009.1
20180424021708 19 53 4.8 12.9 0.00 0.00 0.00 76 1009.1
20180424021212 19 86 4.8 12.9 0.00 0.00 0.00 75 1009.1
20180424020708 19 61 6.4 12.9 0.00 0.00 0.00 74 1009.1
20180424020233 19 30 4.8 12.9 0.00 0.00 0.00 74 1009.2
20180424015709 19 43 4.8 12.9 0.00 0.00 0.00 74 1009.2
20180424015210 19 52 6.4 17.7 0.00 0.00 0.00 74 1009.2
20180424014707 19 5 6.4 17.7 0.00 0.00 0.00 73 1009.2
20180424014221 19 16 4.8 12.9 0.00 0.00 0.00 74 1009.2
20180424013707 19 47 3.2 12.9 0.00 0.00 0.00 75 1009.2
20180424013210 19 45 6.4 12.9 0.00 0.00 0.00 75 1009.1
20180424012708 19 44 8.0 12.9 0.00 0.00 0.00 75 1009.1
20180424012210 19 24 6.4 11.3 0.00 0.00 0.00 74 1009.1
20180424011708 19 5 6.4 11.3 0.00 0.00 0.00 74 1009.1
20180424011211 19 355 4.8 6.4 0.00 0.00 0.00 73 1009.1
20180424010709 19 34 1.6 6.4 0.00 0.00 0.00 72 1009.1
20180424010218 19 46 1.6 4.8 0.00 0.00 0.00 71 1009.2
20180424005711 19 355 1.6 4.8 0.00 0.00 0.00 70 1009.2
20180424005210 19 355 3.2 4.8 0.00 0.00 0.00 69 1009.2
20180424004709 20 323 1.6 4.8 0.00 0.00 0.00 69 1009.3
20180424004225 20 292 1.6 6.4 0.00 0.00 0.00 68 1009.3
20180424003708 20 264 1.6 6.4 0.00 0.00 0.00 69 1009.3
20180424003216 20 264 1.6 6.4 0.00 0.00 0.00 68 1009.2
20180424002713 20 281 1.6 6.4 0.00 0.00 0.00 67 1009.2
20180424002209 20 284 1.6 6.4 0.00 0.00 0.00 67 1009.2
20180424001710 20 284 3.2 6.4 0.00 0.00 0.00 66 1009.3
20180424001217 20 283 3.2 4.8 0.00 0.00 0.00 66 1009.3
20180424000708 20 284 1.6 4.8 0.00 0.00 0.00 66 1009.3
20180424000210 20 5 1.6 9.7 0.00 0.00 0.00 66 1009.4
20180423235708 20 5 3.2 9.7 0.00 0.00 0.00 65 1009.4
20180423235235 21 5 4.8 12.9 0.00 0.00 0.00 65 1009.4
20180423234709 21 350 4.8 12.9 0.00 0.00 0.00 65 1009.4
20180423234209 21 34 6.4 16.1 0.00 0.00 0.00 65 1009.4
20180423233717 21 22 6.4 16.1 0.00 0.00 0.00 65 1009.4
20180423233212 21 20 6.4 16.1 0.00 0.00 0.00 66 1009.5
20180423232709 21 38 8.0 20.9 0.00 0.00 0.00 66 1009.5
20180423232220 21 24 8.0 20.9 0.00 0.00 0.00 66 1009.5
20180423231714 21 38 9.7 12.9 0.00 0.00 0.00 66 1009.5
20180423231209 21 17 8.0 19.3 0.00 0.00 0.00 66 1009.5
20180423230708 21 19 8.0 19.3 0.00 0.00 0.00 66 1009.5
20180423230209 21 26 9.7 20.9 0.00 0.00 0.00 66 1009.6
20180423225708 21 5 9.7 20.9 0.00 0.00 0.00 66 1009.6
20180423225209 21 5 9.7 19.3 0.00 0.00 0.00 67 1009.6
20180423224708 21 355 11.3 19.3 0.00 0.00 0.00 67 1009.7
20180423224210 21 22 11.3 22.5 0.00 0.00 0.00 67 1009.7
20180423223732 21 355 11.3 22.5 0.00 0.00 0.00 67 1009.7
20180423223227 21 20 11.3 22.5 0.00 0.00 0.00 67 1009.9
20180423222709 21 16 12.9 22.5 0.00 0.00 0.00 68 1009.9
20180423222209 21 5 11.3 20.9 0.00 0.00 0.00 68 1009.9
20180423221708 21 26 9.7 20.9 0.00 0.00 0.00 67 1010.0
20180423221209 21 9 9.7 24.1 0.00 0.00 0.00 68 1010.0
20180423220708 21 32 9.7 24.1 0.00 0.00 0.00 67 1010.0
20180423220230 21 5 9.7 27.4 0.00 0.00 0.00 66 1010.1
20180423215708 21 18 11.3 27.4 0.00 0.00 0.00 66 1010.1
20180423215211 21 344 12.9 20.9 0.00 0.00 0.00 66 1010.1
20180423214708 21 9 12.9 20.9 0.00 0.00 0.00 66 1010.0
20180423214210 21 14 11.3 20.9 0.00 0.00 0.00 67 1010.0
20180423213708 21 24 11.3 20.9 0.00 0.00 0.00 66 1010.0
20180423213209 21 15 11.3 24.1 0.00 0.00 0.00 67 1009.9
20180423212708 21 355 9.7 24.1 0.00 0.00 0.00 67 1009.9
20180423212210 22 11 9.7 27.4 0.00 0.00 0.00 67 1009.9
20180423211710 22 22 11.3 27.4 0.00 0.00 0.00 67 1009.8
20180423211209 22 355 12.9 27.4 0.00 0.00 0.00 67 1009.8
20180423210708 22 36 12.9 27.4 0.00 0.00 0.00 66 1009.8
20180423210210 22 321 11.3 22.5 0.00 0.00 0.00 67 1009.7
20180423205708 22 15 11.3 22.5 0.00 0.00 0.00 67 1009.7
20180423205210 22 317 12.9 24.1 0.00 0.00 0.00 67 1009.7
20180423204732 22 331 12.9 24.1 0.00 0.00 0.00 67 1009.6
20180423204209 22 326 11.3 19.3 0.00 0.00 0.00 66 1009.6
20180423203715 22 355 9.7 19.3 0.00 0.00 0.00 66 1009.6
20180423203209 22 346 9.7 24.1 0.00 0.00 0.00 65 1009.4
20180423202713 22 12 9.7 24.1 0.00 0.00 0.00 65 1009.4
20180423202209 22 331 9.7 24.1 0.00 0.00 0.00 65 1009.4
20180423201708 22 5 11.3 24.1 0.00 0.00 0.00 64 1009.1
20180423201219 22 5 9.7 22.5 0.00 0.00 0.00 64 1009.1
20180423200708 22 355 9.7 22.5 0.00 0.00 0.00 65 1009.1
20180423200223 22 355 11.3 20.9 0.00 0.00 0.00 65 1009.1
20180423195710 22 350 11.3 20.9 0.00 0.00 0.00 66 1009.1
20180423195209 22 0 9.7 17.7 0.00 0.00 0.00 66 1009.1
20180423194708 22 340 9.7 17.7 0.00 0.00 0.00 66 1009.1
20180423194215 22 331 9.7 16.1 0.00 0.00 0.00 66 1009.1
20180423193708 22 348 8.0 16.1 0.00 0.00 0.00 67 1009.1
20180423193209 22 0 8.0 19.3 0.00 0.00 0.00 66 1009.1
20180423192708 22 348 8.0 19.3 0.00 0.00 0.00 66 1009.1
20180423192217 22 355 9.7 19.3 0.00 0.00 0.00 66 1009.1
20180423191710 22 0 9.7 19.3 0.00 0.00 0.00 65 1009.0
20180423191220 22 48 8.0 17.7 0.00 0.00 0.00 65 1009.0
20180423190708 22 342 8.0 17.7 0.00 0.00 0.00 64 1009.0
20180423190210 23 355 9.7 17.7 0.00 0.00 0.00 63 1008.9
20180423185709 23 12 9.7 17.7 0.00 0.00 0.00 63 1008.9
20180423185221 23 355 8.0 19.3 0.00 0.00 0.00 61 1008.9
20180423184708 23 355 8.0 19.3 0.00 0.00 0.00 61 1008.8
20180423184209 23 340 8.0 19.3 0.00 0.00 0.00 59 1008.8
20180423183708 23 30 8.0 22.5 0.00 0.00 0.00 58 1008.8
20180423183210 24 0 11.3 22.5 0.00 0.00 0.00 56 1008.8
20180423182709 24 333 11.3 22.5 0.00 0.00 0.00 56 1008.8
20180423182210 24 5 11.3 19.3 0.00 0.00 0.00 55 1008.8
20180423181708 24 346 9.7 19.3 0.00 0.00 0.00 55 1008.6
20180423181209 24 351 8.0 19.3 0.00 0.00 0.00 55 1008.6
20180423180708 25 344 9.7 19.3 0.00 0.00 0.00 55 1008.6
20180423180210 25 10 11.3 22.5 0.00 0.00 0.00 54 1008.6
20180423175709 25 30 9.7 22.5 0.00 0.00 0.00 53 1008.6
20180423175221 25 338 9.7 22.5 0.00 0.00 0.00 55 1008.6
20180423174708 25 5 9.7 22.5 0.00 0.00 0.00 53 1008.6
20180423174209 25 355 9.7 20.9 0.00 0.00 0.00 54 1008.6
20180423173708 25 34 9.7 20.9 0.00 0.00 0.00 54 1008.6
20180423173228 25 343 11.3 20.9 0.00 0.00 0.00 53 1008.6
20180423172708 25 0 9.7 20.9 0.00 0.00 0.00 54 1008.6
20180423172224 25 351 8.0 16.1 0.00 0.00 0.00 54 1008.6
20180423171709 25 318 8.0 20.9 0.00 0.00 0.00 55 1008.8
20180423171209 25 5 8.0 20.9 0.00 0.00 0.00 55 1008.8
20180423170708 25 15 8.0 20.9 0.00 0.00 0.00 55 1008.8
20180423170210 25 355 8.0 20.9 0.00 0.00 0.00 53 1008.9
20180423165707 25 24 9.7 20.9 0.00 0.00 0.00 54 1008.9
20180423165209 25 338 9.7 20.9 0.00 0.00 0.00 52 1008.9
20180423164708 26 0 9.7 20.9 0.00 0.00 0.00 52 1009.0
20180423164218 26 347 8.0 16.1 0.00 0.00 0.00 52 1009.0
20180423163737 26 329 8.0 16.1 0.00 0.00 0.00 52 1009.0
20180423163229 26 333 6.4 16.1 0.00 0.00 0.00 52 1009.1
20180423162709 25 348 8.0 16.1 0.00 0.00 0.00 53 1009.1
20180423162228 25 336 8.0 16.1 0.00 0.00 0.00 52 1009.1
20180423161718 25 331 6.4 16.1 0.00 0.00 0.00 49 1009.1
20180423161209 26 348 6.4 16.1 0.00 0.00 0.00 50 1009.1
20180423160708 26 5 4.8 16.1 0.00 0.00 0.00 52 1009.1
20180423160210 26 339 3.2 11.3 0.00 0.00 0.00 56 1009.1
20180423155708 25 335 4.8 11.3 0.00 0.00 0.00 58 1009.1